Regional Weather Roundup
Issued by NWS

Home | Current Version | Previous Version | Graphics & Text | Print | Product List | Glossary On
Versions: 1 2 3 4 5 6 7 8 9 10 11 12 13 14 15 16 17 18 19 20 21 22 23 24 25 26 27 28 29 30 31 32 33 34 35 36 37 38 39 40 41 42 43 44 45 46 47 48 49 50
819
ASUS43 KMPX 090401
RWRMN
WEATHER ROUNDUP FOR MINNESOTA
NATIONAL WEATHER SERVICE TWIN CITIES/CHANHASSEN MN
1000 PM CST THU DEC 08 2016


NOTE: "FAIR" INDICATES FEW OR NO CLOUDS BELOW 12,000 FEET WITH NO
SIGNIFICANT WEATHER AND/OR OBSTRUCTIONS TO VISIBILITY. N/A MEANS
CURRENT SKY AND/OR WEATHER CONDITIONS ARE NOT AVAILABLE.

MNZ060>063-068>070-090500-
   Twin Cities Metro

CITY           SKY/WX    TMP DP  RH WIND       PRES   REMARKS
TWIN CITIES    CLOUDY    19  11  70 NW13      30.50R WCI   6
ST PAUL        CLOUDY    20  12  71 NW13      30.51R WCI   7
CRYSTAL        CLOUDY    19   9  65 NW12      30.49R WCI   7
BLAINE         MOCLDY    19  12  73 NW13      30.48S WCI   7
LAKEVILLE      FLURRIES  16  12  86 W9        30.49R WCI   4
EDEN PRAIRIE   CLOUDY    19  10  68 NW14      30.50R WCI   6
SOUTH ST PAUL  CLOUDY    21  13  70 NW7       30.49S WCI  12
LAKE ELMO      FAIR      19  14  79 W8        30.49R WCI   9
$$
MNZ001>005-007-008-013>017-022>024-027-028-090500-
   Northwest Minnesota

CITY           SKY/WX    TMP DP  RH WIND       PRES   REMARKS
BEMIDJI        LGT SNOW  10   7  87 W10       30.46S WCI  -3
HALLOCK        CLOUDY     9   3  78 NW5       30.57S WCI   0
ROSEAU         CLEAR      0  -6  78 NW6       30.52S WCI -12
WARROAD        CLOUDY     3   0  85 NW12      30.51S WCI -13
THIEF RVR FALL CLOUDY     3  -1  83 NW9       30.55R WCI -12
CROOKSTON      CLOUDY     7   3  85 N10       30.58S WCI  -8
FOSSTON        LGT SNOW   7   3  85 NW6       30.52R WCI  -3
DETROIT LAKES  LGT SNOW  10   9  92 NW10      30.52S WCI  -3
MOORHEAD       MIX PCPN   5   1  85 NW10      30.59S WCI -10
PARK RAPIDS    CLOUDY    11   5  77 NW9       30.47S WCI  -2
$$
MNZ006-009>011-018-025>026-090500-
   North Central Minnesota

CITY           SKY/WX    TMP DP  RH WIND       PRES   REMARKS
BAUDETTE       CLOUDY    10   4  76 W13       30.46R WCI  -5
FLAG ISLAND    CLOUDY     9   5  85 W15       30.47S WCI  -8
INTL FALLS     CLOUDY    11   5  77 NW9       30.43R WCI  -2
WASKISH        CLOUDY    12   9  85 NW10G16   30.47R WCI  -1
BIG FORK       LGT SNOW  14  10  85 N6        30.43S WCI   5
LONGVILLE      FLURRIES  16  10  79 W6        30.45S WCI   7
GRAND RAPIDS   FLURRIES  14  10  84 NW6       30.45R WCI   5
CRANE LAKE     CLOUDY    12   7  79 N6        30.43S WCI   3
ORR            CLOUDY    10   7  85 NW8       30.38S WCI  -1
COOK           CLOUDY    12   7  79 W8        30.40S WCI   1
$$
MNZ012-019>021-037-090500-
   Northeast Minnesota

CITY           SKY/WX    TMP DP  RH WIND       PRES   REMARKS
DULUTH         FLURRIES  16  10  77 NW13      30.38R WCI   2
ELY            CLEAR     10   7  85 NW7       30.36S WCI   0
HIBBING        CLEAR      8   3  80 NW9       30.41R WCI  -5
EVELETH        FLURRIES  15   8  74 NW9       30.40R WCI   3
DULUTH HARBOR  CLOUDY    21  12  68 NW17      30.45R WCI   7
TWO HARBORS    CLOUDY    19  12  73 NW3       30.38R
SILVER BAY     FLURRIES  16  10  79 CALM      30.37R
GRAND MARAIS     N/A     18   6  59 CALM      30.39R
G MARAIS ARPRT CLOUDY    10   1  67 NW13G20   30.27S WCI  -5
$$
MNZ029>031-032-039>041-046>048-054>057-064-090500-
   West Central Minnesota

CITY           SKY/WX    TMP DP  RH WIND       PRES   REMARKS
FERGUS FALLS   CLOUDY     3   0  85 NW9       30.62R WCI -11
WHEATON        CLEAR      5   0  78 W10       30.62R WCI -10
MORRIS         MOCLDY     5   1  85 NW15      30.57R FOG     WCI -13
ALEXANDRIA     CLOUDY     8   5  87 W14       30.51S WCI  -8
ELBOW LAKE     LGT SNOW   4   1  87 NW14      30.56S WCI -13
WADENA         LGT SNOW  10   7  85 W8        30.49S WCI  -1
GLENWOOD       CLOUDY     9   7  92 W12       30.52S WCI  -6
APPLETON       PTCLDY     7   1  78 NW8       30.59S WCI  -6
BENSON         CLOUDY     7   1  78 NW7       30.57S WCI  -5
ORTONVILLE     CLEAR      5   0  78 NW13      30.59S WCI -12
MADISON        CLEAR      9   3  78 NW10      30.60S WCI  -6
WILLMAR        FLURRIES  10   9  92 NW13      30.55F WCI  -5
$$
MNZ033>034-036-042>043-049>051-058-059-090500-
   Central Minnesota

CITY           SKY/WX    TMP DP  RH WIND       PRES   REMARKS
ST CLOUD       CLEAR     13   9  84 NW10      30.50R WCI   0
PAYNESVILLE    CLEAR     11  10  95 W9        30.52S WCI  -2
AITKIN         PTCLDY    10   5  79 CALM      30.45R
PINE RIVER     CLOUDY    12   9  85 W3        30.49S
BRAINERD       PTCLDY    13   9  84 NW8       30.48R WCI   2
STAPLES        CLOUDY     9   7  92 W8        30.49S WCI  -4
LONG PRAIRIE   FAIR      10   7  85 W6        30.50S WCI   1
LITTLE FALLS   CLEAR     12   9  85 W8          N/A  WCI   1
LITCHFIELD     PTCLDY    14  10  85 NW10      30.52S WCI   1
BUFFALO        PTCLDY    17  11  77 W8        30.52R WCI   6
MAPLE LAKE     CLEAR     16  12  86 NW8       30.52R WCI   5
HUTCHINSON     MOCLDY    14  10  83 W12       30.54R WCI   0
$$
MNZ037-044-045-052-053-090500-
   East Central Minnesota

CITY           SKY/WX    TMP DP  RH WIND       PRES   REMARKS
PRINCETON      PTCLDY    16  10  79 W9        30.48S WCI   4
MORA           CLEAR     18   9  68 N10G17    30.48R WCI   6
CAMBRIDGE      FLURRIES  18  10  73 W7G16     30.47R WCI   8
RUSH CITY      PTCLDY    16  12  86 W6        30.47R WCI   7
MOOSE LAKE     CLOUDY    18  10  73 N6        30.43R WCI   9
HINCKLEY       FAIR      18  12  79 NW7       30.45S WCI   8
CLOQUET        PTCLDY    16   7  67 NW15G21   30.41R WCI   1
MCGREGOR       CLOUDY    16  10  79 NW6       30.45R WCI   7
$$
MNZ071>073-080-081-089-090-097-098-090500-
   Southwest Minnesota

CITY           SKY/WX    TMP DP  RH WIND       PRES   REMARKS
MONTEVIDEO     CLOUDY     7   3  85 N9        30.60S WCI  -7
GRANITE FALLS  CLEAR     10   6  84 NW9       30.60S WCI  -4
CANBY          CLEAR      8   4  82 CALM      30.60S
MARSHALL       CLEAR      7   3  84 NW12      30.58S WCI  -8
REDWOOD FALLS  CLOUDY    12   5  73 NW10G20   30.57R WCI  -1
OLIVIA         FLURRIES  12   9  85 NW12G17   30.55S WCI  -2
PIPESTONE      CLEAR      7   3  85 NW14      30.54S WCI -10
WINDOM         FLURRIES  10   7  85 NW12      30.54S WCI  -4
WORTHINGTON    CLEAR      8   4  83 NW12      30.55S WCI  -7
JACKSON        FLURRIES  12   7  79 NW15      30.54S WCI  -4
TRACY          CLEAR     10   7  85 NW12      30.56S WCI  -4
SLAYTON        CLEAR      8   5  87 NW10      30.54S WCI  -7
$$
MNZ065>067-074>077-082>085-091>093-090500-
   South Central Minnesota

CITY           SKY/WX    TMP DP  RH WIND       PRES   REMARKS
MANKATO        FLURRIES  14  10  84 NW13      30.54R WCI   0
NEW ULM        FLURRIES  12   7  79 NW16      30.55S WCI  -4
ST JAMES       FLURRIES  12   9  85 NW15G21   30.57R WCI  -4
FAIRMONT       FLURRIES  13   8  81 NW17      30.56R WCI  -4
GLENCOE        CLOUDY    16  13  88 W12G18    30.52S WCI   2
FARIBAULT      FLURRIES  16  12  86 W9        30.50S WCI   4
OWATONNA       FLURRIES  16  10  79 W15       30.49R WCI   1
WASECA         FLURRIES  16  10  79 W14       30.53R WCI   1
ALBERT LEA     FLURRIES  18  12  79 W12G18    30.50R WCI   5
$$
MNZ078>079-086>088-094>096-090500-
   Southeast Minnesota

CITY           SKY/WX    TMP DP  RH WIND       PRES   REMARKS
ROCHESTER      CLOUDY    17  13  84 W14       30.45R WCI   3
RED WING       CLOUDY    21  12  68 NW6       30.47R WCI  14
STANTON        CLOUDY    19  14  81 W7        30.49R WCI  10
DODGE CENTER   FLURRIES  16  12  86 W13       30.46S WCI   2
WINONA           N/A     23  16  74 NW6       30.47R WCI  16
AUSTIN         FLURRIES  16  10  79 NW13      30.48R WCI   2
PRESTON        FLURRIES  17  13  84 NW13      30.45S WCI   3
$$
ABBREVIATIONS USED IN REMARKS
   TC - TEMPERATURES IN CELSIUS
  WCI - WIND CHILL INDEX
   HX - HEAT INDEX
  VSB - VISIBILITY
$$




USA.gov is the U.S. government's official web portal to all federal, state and local government web resources and services.